Regional Weather Roundup
Issued by NWS

Home | Current Version | Previous Version | Graphics & Text | Print | Product List | Glossary On
Versions: 1 2 3 4 5 6 7 8 9 10 11 12 13 14 15 16 17 18 19 20 21 22 23 24 25 26 27 28 29 30 31 32 33 34 35 36 37 38 39 40 41 42 43 44 45 46 47 48 49 50
000
ASUS43 KDMX 160906
RWRIA

WEATHER ROUNDUP FOR IOWA
NATIONAL WEATHER SERVICE DES MOINES IA
300 AM CST MON JAN 16 2017

NOTE: "FAIR" INDICATES FEW OR NO CLOUDS BELOW 12,000 FEET WITH NO
SIGNIFICANT WEATHER AND/OR OBSTRUCTIONS TO VISIBILITY.

* - THESE STATIONS ARE NOT NWS STATIONS...THUS NOT UNDER NWS
QUALITY CONTROL.  THEY ALSO DO NOT REPORT WEATHER SUCH
AS PRECIPITATION OR FOG.

IAZ001>003-012>014-020>022-031>034-043>046-161000-
   NORTHWEST IOWA

CITY           SKY/WX    TMP DP  RH WIND       PRES   REMARKS
CARROLL *      MIX PCPN  32  32 100 E7        30.14S WCI  26
CHEROKEE *     MIX PCPN  31  31 100 SE5       30.14S WCI  26
DENISON *      CLOUDY    32  32 100 E8        30.10F FOG     WCI  25
LE MARS *      CLOUDY    30  30 100 NE3       30.14F FOG
ORANGE CITY *  MIX PCPN  28  28 100 CALM      30.13S
SHELDON *      CLOUDY    27  28 100 SE6       30.12S WCI  20
SIOUX CITY     CLOUDY    33  31  92 E5        30.12F FOG     WCI  29
SPENCER        CLOUDY    28  26  92 SE6       30.14F WCI  22
STORM LAKE *   CLOUDY    30  30 100 SE7       30.13F FOG     WCI  23
$$

IAZ055>058-069>071-079>083-090>094-161000-
   SOUTHWEST IOWA

CITY           SKY/WX    TMP DP  RH WIND       PRES   REMARKS
ATLANTIC *     CLOUDY    32  32 100 NE5       30.11F WCI  27
AUDUBON *      MIX PCPN  30  28  93 E6        30.12F WCI  24
CLARINDA *     CLOUDY    32  32 100 E6        30.11S FOG     WCI  26
COUNCIL BLFS * CLOUDY    32  32 100 E8        30.09F FOG     WCI  25
CRESTON *      CLOUDY    30  30 100 E8        30.12S FOG     WCI  23
HARLAN  *      CLOUDY    32  32 100 E6        30.14F WCI  26
LAMONI         FOG       31  30  96 E10       30.10F VSB 1   WCI  22
RED OAK *      CLOUDY    32  32 100 NE8       30.10F WCI  25
SHENANDOAH *   CLOUDY    32  32 100 NE8       30.10S FOG     WCI  25
$$

IAZ047>049-059>061-072>074-084-161000-
   CENTRAL IOWA

CITY           SKY/WX    TMP DP  RH WIND       PRES   REMARKS
AMES           FRZ RAIN  31  31 100 E7        30.17F FOG     WCI  24
ANKENY *       CLOUDY    30  30 100 MISG      30.17F FOG
BOONE *        CLOUDY    30  30 100 MISG      30.15F FOG
CHARITON *     CLOUDY    30  30 100 E9        30.13F FOG     WCI  22
DES MOINES     FRZ RAIN  31  29  92 E8        30.16F FOG     WCI  23
GRINNELL*      MIX PCPN  30  29  95 E7        30.20R WCI  23
KNOXVILLE *    CLOUDY    30  28  93 E9        30.15F WCI  22
MARSHALLTOWN   FRZ RAIN  30  28  92 SE10      30.19S FOG     WCI  21
NEWTON *       CLOUDY    30  30 100 E10       30.17F FOG     WCI  21
PELLA *        MIX PCPN  31  30  95 E7        30.18F WCI  24
PERRY *        LGT RAIN  31  31 100 E8        30.15F WCI  24
$$

IAZ004>006-015-016-023>025-035-036-161000-
   NORTH CENTRAL IOWA

CITY           SKY/WX    TMP DP  RH WIND       PRES   REMARKS
ALGONA *       CLOUDY    28  28 100 SE9       30.16S FOG     WCI  20
CLARION *      CLOUDY    30  30 100 SE8       30.18S FOG     WCI  23
ESTHERVILLE    CLOUDY    26  24  92 CALM      30.15S
FORT DODGE *   CLOUDY    30  27  86 E7        30.17F WCI  23
MASON CITY     FRZ RAIN  27  23  85 SE8       30.19F WCI  19
FOREST CITY *  MIX PCPN  28  27  93 SE9       30.18S WCI  20
WEBSTER CITY * CLOUDY    30  32 100 SE9       30.15F FOG     WCI  22
IOWA FALLS *   MIX PCPN  31  29  93 E9        30.19S WCI  23
$$

IAZ007>011-017>019-026>030-037>042-050>054-066-161000-
   NORTHEAST IOWA

CITY           SKY/WX    TMP DP  RH WIND       PRES   REMARKS
CEDAR RAPIDS   FRZ RAIN  29  27  92 E9        30.22R FOG     WCI  20
CHARLES CITY * CLOUDY    28  25  86 SE9       30.21S WCI  20
CLINTON *      MIX PCPN  30  28  92 E6        30.26S FOG     WCI  24
DECORAH *      MIX PCPN  25  19  80 SE7       30.21F WCI  17
DUBUQUE        FRZ RAIN  29  25  85 SE6       30.24S FOG     WCI  23
MONTICELLO *   MIX PCPN  30  27  86 E5        30.25R WCI  25
OELWEIN *      CLOUDY    28  27  93 SE12      30.22F FOG     WCI  18
WATERLOO       FRZ RAIN  30  26  85 SE7       30.22S FOG     WCI  23
$$

IAZ064-065-067-068-078-161000-
   EAST CENTRAL IOWA

CITY           SKY/WX    TMP DP  RH WIND       PRES   REMARKS
DAVENPORT      MIX PCPN  31  28  89 E8        30.24F FOG     WCI  23
IOWA CITY      FRZ RAIN  32  29  88 E5        30.25S FOG     WCI  27
MUSCATINE *    MIX PCPN  32  30  93 E6        30.24S WCI  26
QUAD CITIES    CLOUDY    33  27  78 E7        30.23F HAZE    WCI  27
$$

IAZ062-063-075>077-085>089-095>099-161000-
   SOUTHEAST IOWA

CITY           SKY/WX    TMP DP  RH WIND       PRES   REMARKS
BURLINGTON     FOG       32  32 100 E6        30.20F VSB 1   WCI  26
FAIRFIELD *    CLOUDY    32  30  93 E12       30.19F FOG     WCI  23
FORT MADISON * FOG       32  28  86 E5        30.21S VSB 1/2 WCI  27
KEOKUK *       FOG       32  32 100 E6        30.19S VSB 1/4 WCI  26
OSKALOOSA *    LGT RAIN  30  29  96 E12       30.19S WCI  21
CENTERVILLE *  LGT RAIN  30  30 100 CALM      30.15F
OTTUMWA        FRZ RAIN  31  29  92 E12       30.17F FOG     WCI  22
WASHINGTON *   LGT RAIN  32  32 100 E10       30.22F WCI  24
$$

ABBREVIATIONS USED IN REMARKS
   TC - TEMPERATURES IN CELSIUS
  WCI - WIND CHILL INDEX
   HX - HEAT INDEX
  VSB - VISIBILITY
$$





USA.gov is the U.S. government's official web portal to all federal, state and local government web resources and services.